This is the latest recevied weather packets stored in our database for station/object W8KHW. If no packets are shown the sender has not sent any weather packets the latest 10 day(s).
| Time | Temp. | Humidity | Pressure | Rain* | Wind** | Luminosity | Snow |
|---|---|---|---|---|---|---|---|
| 1778085032 | 15° C | 58% | 1013.5 hPa | 0 mm | - | - | - |
| 1778084532 | 14.44° C | 63% | 1013.4 hPa | 0 mm | - | - | - |
| 1778084032 | 13.89° C | 58% | 1013.4 hPa | 0 mm | - | - | - |
| 1778083531 | 13.33° C | 60% | 1012.9 hPa | 0 mm | - | - | - |
| 1778083031 | 13.89° C | 59% | 1012.8 hPa | 0 mm | - | - | - |
| 1778082531 | 12.22° C | 65% | 1013.1 hPa | 0 mm | - | - | - |
| 1778082031 | 12.78° C | 66% | 1012.6 hPa | 0 mm | - | - | - |
| 1778081531 | 12.22° C | 64% | 1012.8 hPa | 0 mm | - | - | - |
| 1778081030 | 11.67° C | 67% | 1012.8 hPa | 0 mm | - | - | - |
| 1778080530 | 12.22° C | 66% | 1012.4 hPa | 0 mm | - | - | - |
| 1778080030 | 12.78° C | 69% | 1012.5 hPa | 0 mm | - | - | - |
| 1778079530 | 11.67° C | 68% | 1012.2 hPa | 0 mm | - | - | - |
| 1778079030 | 11.11° C | 69% | 1012 hPa | 0 mm | - | - | - |
| 1778078530 | 11.11° C | 76% | 1012.3 hPa | 0 mm | - | - | - |
| 1778078029 | 11.11° C | 78% | 1012.5 hPa | 0 mm | - | - | - |
| 1778077529 | 10.56° C | 79% | 1012.1 hPa | 0 mm | - | - | - |
| 1778077029 | 10° C | 79% | 1012.1 hPa | 0 mm | - | - | - |
| 1778076529 | 10° C | 81% | 1011.8 hPa | 0 mm | - | - | - |
| 1778076029 | 10° C | 85% | 1011.6 hPa | 0 mm | - | - | - |
| 1778075528 | 8.89° C | 83% | 1011.5 hPa | 0 mm | - | - | - |
| 1778075028 | 8.89° C | 87% | 1011.8 hPa | 0 mm | - | - | - |
| 1778074528 | 8.89° C | 91% | 1011.5 hPa | 0 mm | - | - | - |
| 1778074028 | 8.33° C | 95% | 1011.3 hPa | 0 mm | - | - | - |
| 1778073528 | 8.33° C | 98% | 1011.3 hPa | 0 mm | - | - | - |
| 1778073027 | 7.78° C | 99% | 1011.4 hPa | 0 mm | - | - | - |
* Rain latest hour (hover to see other rain measurements)
** Current wind speed in m/s (hover to see current wind gust speed)